Location: Buffign�court
(47.8126°N, 6.0176°E)
Time: 02:44:59
(UTC+00:00)

Cosmos 1184 Rocket - Pass Details

Date: 16 June 2021
Orbit: 399 x 413 km, 81.2° (Epoch: 04 August)

Event Time Altitude Azimuth Distance (km) Brightness Sun altitude
Exits shadow 22:36:57 31° 102° (ESE) 761 3.8 -17.5°
Maximum altitude 22:37:08 31° 94° (E) 757 3.8 -17.6°
Drops below altitude 10° 22:40:04 10° 30° (NNE) 1,504 6.2 -17.7°
Sets 22:42:14 0° 20° (NNE) 2,373 7.5 -17.8°
